• Join FlightAware (Why Join?)
  • Login
  • US Flag 
06:08PM EST


 

Airport Tracker/Info


-or-


 

Live Flight TrackerFlight Track Log ✈ UCA9878 ✈ 18-Feb-2014 ✈ KCLE - KBGM

Flight Track Log - Related Links

Times and Time Zones

All times are in EST time to prevent confusion due to time zone crossing. See the UCA9878 flight status page for this flight to view local times or setup timezone preferences in your user account.

Time Position Orientation Groundspeed Altitude Reporting Facility
EST Latitude Longitude Course Direction KTS MPH feet Rate Location/Type
01:29PM 41.4019 -81.8714 317° Northwest 120 138 2,200  Level Cleveland Center
01:29PM 41.4150 -81.8875 317° Northwest 161 185 3,000 1,674 Climbing Cleveland Center
01:30PM 41.4211 -81.8919 331° Northwest 140 161 3,400 2,320 Climbing Cleveland Center
01:31PM 41.4603 -81.8858 North 156 180 5,900 2,274 Climbing Cleveland Center
01:32PM 41.4975 -81.8381 44° Northeast 176 203 8,100 2,129 Climbing Cleveland Center
01:33PM 41.5358 -81.7903 43° Northeast 182 209 10,300 2,081 Climbing Cleveland Center
01:34PM 41.5836 -81.7311 43° Northeast 194 223 12,400 1,805 Climbing Cleveland Center
01:35PM 41.5953 -81.6425 80° East 233 268 14,000 1,512 Climbing Cleveland Center
01:36PM 41.6056 -81.5536 81° East 236 272 15,500 1,355 Climbing Cleveland Center
01:37PM 41.6181 -81.4589 80° East 253 291 16,800 726 Climbing Cleveland Center
01:38PM 41.6311 -81.3517 81° East 285 328 17,000 97 Climbing Cleveland Center
01:39PM 41.6464 -81.2331 80° East 316 364 17,000  Level Cleveland Center
01:40PM 41.6622 -81.1131 80° East 323 372 17,000  Level Cleveland Center
01:41PM 41.6772 -80.9931 80° East 323 372 17,000  Level Cleveland Center
01:42PM 41.6917 -80.8714 81° East 324 373 17,000  Level Cleveland Center
01:43PM 41.7053 -80.7492 81° East 328 377 17,000  Level Cleveland Center
01:44PM 41.7203 -80.6297 80° East 326 375 17,000  Level Cleveland Center
01:45PM 41.7356 -80.4878 82° East 326 375 17,000  Level Cleveland Center
01:46PM 41.7511 -80.3653 80° East 327 376 17,000  Level Cleveland Center
01:47PM 41.7650 -80.2431 81° East 329 379 17,000  Level Cleveland Center
01:48PM 41.7789 -80.1189 81° East 332 382 17,000  Level Cleveland Center
01:49PM 41.7922 -79.9950 82° East 333 383 17,000  Level Cleveland Center
01:50PM 41.8069 -79.8736 81° East 332 382 17,000  Level Cleveland Center
01:51PM 41.8206 -79.7500 82° East 332 382 17,000  Level Cleveland Center
01:52PM 41.8358 -79.6106 82° East 332 382 17,000 48 Level Cleveland Center
01:53PM 41.8489 -79.4906 82° East 331 381 17,100 48 Climbing Cleveland Center
01:54PM 41.8614 -79.3686 82° East 330 380 17,100 -49 Level Cleveland Center
01:55PM 41.8731 -79.2467 83° East 331 381 17,000 -49 Descending Cleveland Center
01:56PM 41.8847 -79.1250 83° East 331 381 17,000  Level Cleveland Center
01:57PM 41.8983 -79.0011 82° East 332 382 17,000 48 Level Cleveland Center
01:58PM 41.9150 -78.8533 81° East 333 383 17,100  Climbing Cleveland Center
01:59PM 41.9281 -78.7300 82° East 333 383 17,000 -48 Descending Cleveland Center
02:01PM 41.9394 -78.6075 83° East 333 383 17,000  Level Cleveland Center
02:02PM 41.9517 -78.4836 82° East 333 383 17,000  Level Cleveland Center
02:03PM 41.9633 -78.3586 83° East 334 384 17,000  Level Cleveland Center
02:04PM 41.9750 -78.2331 83° East 336 387 17,000  Level Cleveland Center
02:05PM 41.9892 -78.0858 83° East 337 388 17,000  Level Cleveland Center
02:06PM 42.0011 -77.9614 83° East 337 388 17,000  Level Cleveland Center
02:07PM 42.0133 -77.8367 82° East 338 389 17,000  Level Cleveland Center
02:08PM 42.0247 -77.7136 83° East 337 388 17,000 49 Level Cleveland Center
02:09PM 42.0361 -77.5883 83° East 337 388 17,100 48 Climbing Cleveland Center
02:10PM 42.0464 -77.4625 84° East 338 389 17,100  Level Cleveland Center
02:11PM 42.0606 -77.3142 83° East 338 389 17,100 -145 Level Cleveland Center
02:12PM 42.0711 -77.1908 83° East 336 387 16,800 -634 Descending Cleveland Center
02:13PM 42.0819 -77.0617 84° East 345 397 15,800 -976 Descending Cleveland Center
02:14PM 42.0931 -76.9314 83° East 350 403 14,800 -941 Descending Cleveland Center
02:15PM 42.0986 -76.8528 85° East 340 391 14,200 -1,080 Descending New York Center
02:16PM 42.1117 -76.7197 82° East 330 380 13,000 -1,350 Descending New York Center
02:17PM 42.1047 -76.6072 95° East 318 366 11,500 -1,500 Descending New York Center
02:18PM 42.0706 -76.4981 113° Southeast 303 349 10,000 -1,500 Descending New York Center
02:19PM 42.0381 -76.3919 112° Southeast 303 349 8,500 -1,600 Descending New York Center
02:20PM 42.0053 -76.2942 114° Southeast 303 349 6,800 -1,600 Descending New York Center
02:21PM 41.9953 -76.1956 98° East 283 326 5,300 -950 Descending New York Center
02:22PM 41.9953 -76.0981 90° East 269 310 4,900 -200 Descending New York Center
02:23PM 41.9953 -76.0089 90° East 269 310 4,900  Level New York Center
02:24PM 41.9933 -75.9081 91° East 269 310 4,900 2,050 Level New York Center
02:25PM 42.0222 -75.8183 67° East 252 290 9,000 50 Climbing New York Center
02:26PM 42.0686 -75.8553 329° Northwest 129 148 5,000 -2,500 Descending New York Center
02:27PM 42.1103 -75.9006 321° Northwest 146 168 4,000 -1,000 Descending New York Center
02:28PM 42.1547 -75.9347 330° Northwest 159 183 3,000 -1,000 Descending New York Center
02:29PM 42.1867 -75.9653 325° Northwest 160 184 2,000 -500 Descending New York Center
02:30PM 42.2228 -75.9933 330° Northwest 160 184 2,000  Level New York Center
02:32PM 42.2084 -75.9796 181° South  Level Estimated
02:39PM 42.2084 -75.9796 North  Level Estimated
02:40PM 42.2084 -75.9796 North  Level Estimated